CZ-6A DEB, 54983

Orbit data source: Space-Track

CZ-6A DEB, 54983 is space debris in SSO originally from a launch on Fri, 11 Nov 2022 UTC launched from the Taiyaun Space Center, China (TSC). Debris objects in space refer to the collection of defunct objects orbiting the Earth. Examples of debris include non-operational satellites, rocket bodies, and fragments generated from explosions, collisions, or faulty payload assembly.

Loading next visibility...
Identifier
54983, 2022-151TY
Orbit
SSO
Country
Flag of CNCN / PRC
Related business
Manufacturer
SAST
Mission
Spacecraft
Bus & Motor
Unknown
Mass
Unknown
Launch date (UTC)
2022-11-11 (4 years ago)
Launch vehicle
Unknown
Launch site
Taiyaun Space Center, China (TSC)
Object type
Payload
Rocket body
Debris
Shape & HBR
Unknown shape, 0.1 m
Radar Cross Section
Medium (>0.1 m² and <1 m²)

Expand to show TLE details & history
Last TLE update: 23 hours ago

TLE from 23 hours ago
0 CZ-6A DEB
1 54983U 22151TY  26236.15955839  .00000172  00000-0  20799-3 0  9994
2 54983  98.9019 141.1838 0263571  62.7661 300.0076 13.63963321186991
Epoch: 2026-08-24T03:49Z
TLE epoch observation values (Epoch: 2026-08-24T03:49:45.844Z)
Latitude
-0.00007°
Longitude
111.29754°
Altitude
930.532 km
Speed
7.433 km/s
True Right ascension
09h 24m 44s
True Declination
0° 00' 00"
Sunlit
Object was in daylight at epoch
Visualization orbit readout
Latitude
Unknown
Longitude
Unknown
Altitude
Unknown
Speed
Unknown
Apparent Right ascension
Unknown
Apparent Declination
Unknown
Sunlit
N/A
Visualization observer readout
Local Sidereal Time
18:26:18
Azimuth
Unknown
Elevation
Unknown
Doppler factor
Unknown
Orbital elements
Apogee altitude
1,213.519 km
Perigee altitude
823.608 km
Semi-major axis
7,396.701 km
Eccentricity
0.02636
Inclination
98.9019°
RAAN
141.1838°
Arg. of periapsis
62.7661°
True anomaly
297.34931°
Mean anomaly
300.0076°
Eccentric anomaly
298.68276°
Mean motion
3.41182 °/min
Orbital period
105.52 mins
BSTAR
0.00020799
Loading maneuver chart data...
Computing Atmospheric mass density...
Loading historical data...
Loading historical data...
Loading historical data...
Loading historical data...
Loading historical data...
Loading historical data...
Loading historical data...

Documentation

Showing up to 5 results
|